Location: Cahas Mountain Overlook
(37.0833°N, 80.1000°W)
Time: 17:37:53
(UTC-05:00)

Vanguard 3 - Pass Details

Date: 08 December 2023
Orbit: 508 x 3239 km, 33.4° (Epoch: 23 February)

Event Time Altitude Azimuth Distance (km) Brightness Sun altitude
Rises 18:26:15 0° 213° (SSW) 7,190 12.8 -16.1°
Reaches altitude 10° 18:32:00 10° 205° (SSW) 6,104 12.1 -17.2°
Maximum altitude 18:47:26 33° 150° (SSE) 3,811 10.3 -20.2°
Enters shadow 18:54:45 22° 107° (ESE) 3,927 10.1 -21.6°
